When you browse on this site, cookies collect data to enhance your experience and personalize the content and advertising you see.
Visit our Privacy Policy to learn more. By continuing to use the site, you agree to this use of cookies and data.
EN

Hourly Weather Gutorovschina

Today, 3 August, Monday

Time Temperature Precipitation Wind Pressure Humidity
00:00 +12°C° 0 mm 1 mps 744 mmHg 86%
01:00 +11°C° 0 mm 0 mps 744 mmHg 86%
02:00 +12°C° 0 mm 1 mps 744 mmHg 86%
03:00 +12°C° 0 mm 1 mps 744 mmHg 87%
04:00 +12°C° 0 mm 1 mps 744 mmHg 88%
05:00 +11°C° 0 mm 1 mps 744 mmHg 89%
06:00 +13°C° 0 mm 1 mps 744 mmHg 85%
07:00 +15°C° 0 mm 2 mps 744 mmHg 82%
08:00 +17°C° 0 mm 2 mps 745 mmHg 78%
09:00 +18°C° 0 mm 3 mps 745 mmHg 75%
10:00 +20°C° 0 mm 3 mps 745 mmHg 71%
11:00 +21°C° 0 mm 3 mps 745 mmHg 67%
12:00 +21°C° 0 mm 3 mps 744 mmHg 66%
13:00 +22°C° 0 mm 3 mps 744 mmHg 65%
14:00 +22°C° 0 mm 3 mps 744 mmHg 66%
15:00 +22°C° 0.1 mm 3 mps 744 mmHg 70%
16:00 +22°C° 0.1 mm 3 mps 744 mmHg 73%
17:00 +22°C° 0.1 mm 3 mps 744 mmHg 76%
18:00 +21°C° 0 mm 3 mps 744 mmHg 80%
19:00 +19°C° 0 mm 3 mps 744 mmHg 84%
20:00 +17°C° 0 mm 3 mps 744 mmHg 88%
21:00 +17°C° 0 mm 3 mps 744 mmHg 88%
22:00 +16°C° 0 mm 3 mps 744 mmHg 89%
23:00 +14°C° 0 mm 3 mps 744 mmHg 90%

Tomorrow, 4 August, Tuesday

Time Temperature Precipitation Wind Pressure Humidity
00:00 +14°C° 0 mm 3 mps 744 mmHg 90%
01:00 +13°C° 0 mm 3 mps 744 mmHg 91%
02:00 +13°C° 0 mm 3 mps 745 mmHg 91%
03:00 +13°C° 0 mm 3 mps 745 mmHg 91%
04:00 +13°C° 0 mm 3 mps 745 mmHg 91%
05:00 +13°C° 0 mm 3 mps 745 mmHg 90%
06:00 +14°C° 0 mm 3 mps 745 mmHg 87%
07:00 +15°C° 0 mm 4 mps 745 mmHg 83%
08:00 +18°C° 0 mm 4 mps 745 mmHg 79%
09:00 +19°C° 0 mm 5 mps 745 mmHg 76%
10:00 +21°C° 0 mm 5 mps 745 mmHg 72%
11:00 +22°C° 0 mm 5 mps 745 mmHg 68%
12:00 +23°C° 0 mm 5 mps 745 mmHg 66%
13:00 +25°C° 0 mm 5 mps 745 mmHg 64%
14:00 +25°C° 0 mm 5 mps 745 mmHg 62%
15:00 +25°C° 0 mm 5 mps 745 mmHg 66%
16:00 +25°C° 0 mm 4 mps 744 mmHg 69%
17:00 +23°C° 0 mm 4 mps 744 mmHg 72%
18:00 +22°C° 0 mm 4 mps 744 mmHg 76%
19:00 +20°C° 0 mm 4 mps 744 mmHg 79%
20:00 +19°C° 0 mm 4 mps 744 mmHg 83%
21:00 +18°C° 0 mm 4 mps 745 mmHg 84%
22:00 +18°C° 0 mm 4 mps 745 mmHg 85%
23:00 +17°C° 0 mm 4 mps 745 mmHg 87%

Day after tomorrow, 5 August, Wednesday

Time Temperature Precipitation Wind Pressure Humidity
00:00 +17°C° 0 mm 4 mps 745 mmHg 86%
01:00 +15°C° 0 mm 4 mps 745 mmHg 86%
02:00 +15°C° 0 mm 4 mps 745 mmHg 86%
03:00 +15°C° 0 mm 4 mps 745 mmHg 86%
04:00 +14°C° 0 mm 4 mps 745 mmHg 86%
05:00 +14°C° 0 mm 3 mps 745 mmHg 86%
06:00 +17°C° 0 mm 4 mps 746 mmHg 83%
07:00 +18°C° 0 mm 4 mps 746 mmHg 80%
08:00 +20°C° 0 mm 4 mps 746 mmHg 77%
09:00 +21°C° 0 mm 4 mps 746 mmHg 74%
10:00 +23°C° 0 mm 4 mps 746 mmHg 71%
11:00 +25°C° 0 mm 4 mps 747 mmHg 68%
12:00 +26°C° 0 mm 4 mps 747 mmHg 66%
13:00 +26°C° 0 mm 3 mps 747 mmHg 63%
14:00 +27°C° 0 mm 3 mps 747 mmHg 61%
15:00 +27°C° 0 mm 3 mps 747 mmHg 65%
16:00 +27°C° 0 mm 2 mps 747 mmHg 68%
17:00 +27°C° 0 mm 2 mps 747 mmHg 72%
18:00 +25°C° 0 mm 2 mps 747 mmHg 74%
19:00 +23°C° 0 mm 2 mps 747 mmHg 77%
20:00 +21°C° 0 mm 2 mps 747 mmHg 79%
21:00 +20°C° 0 mm 2 mps 747 mmHg 80%
22:00 +20°C° 0 mm 2 mps 748 mmHg 81%
23:00 +19°C° 0 mm 2 mps 748 mmHg 82%

6 August, Thursday

Time Temperature Precipitation Wind Pressure Humidity
00:00 +19°C° 0 mm 2 mps 748 mmHg 83%
01:00 +18°C° 0 mm 2 mps 748 mmHg 84%
02:00 +18°C° 0 mm 2 mps 748 mmHg 85%
03:00 +18°C° 0 mm 2 mps 748 mmHg 85%
04:00 +18°C° 0 mm 2 mps 749 mmHg 86%
05:00 +18°C° 0 mm 2 mps 749 mmHg 86%
06:00 +19°C° 0 mm 2 mps 749 mmHg 84%
07:00 +20°C° 0 mm 2 mps 749 mmHg 81%
08:00 +21°C° 0 mm 2 mps 749 mmHg 79%
09:00 +23°C° 0.1 mm 2 mps 749 mmHg 77%
10:00 +24°C° 0.1 mm 2 mps 750 mmHg 76%
11:00 +25°C° 0.1 mm 2 mps 750 mmHg 75%
12:00 +25°C° 1 mm 2 mps 750 mmHg 76%
13:00 +25°C° 1 mm 3 mps 750 mmHg 77%
14:00 +26°C° 1 mm 3 mps 750 mmHg 78%
15:00 +25°C° 0.4 mm 3 mps 750 mmHg 78%
16:00 +25°C° 0.4 mm 3 mps 750 mmHg 78%
17:00 +25°C° 0.4 mm 3 mps 750 mmHg 78%
18:00 +22°C° 0 mm 3 mps 750 mmHg 80%
19:00 +21°C° 0 mm 3 mps 750 mmHg 82%
20:00 +19°C° 0 mm 3 mps 750 mmHg 84%
21:00 +18°C° 0 mm 3 mps 750 mmHg 83%
22:00 +17°C° 0 mm 3 mps 751 mmHg 83%
23:00 +16°C° 0 mm 3 mps 751 mmHg 82%

7 August, Friday

Time Temperature Precipitation Wind Pressure Humidity
00:00 +16°C° 0 mm 3 mps 751 mmHg 82%
01:00 +14°C° 0 mm 3 mps 751 mmHg 82%
02:00 +14°C° 0 mm 3 mps 751 mmHg 82%
03:00 +14°C° 0 mm 3 mps 751 mmHg 84%
04:00 +15°C° 0 mm 2 mps 751 mmHg 85%
05:00 +14°C° 0 mm 2 mps 752 mmHg 87%
06:00 +16°C° 0 mm 3 mps 752 mmHg 84%
07:00 +18°C° 0 mm 3 mps 752 mmHg 81%
08:00 +19°C° 0 mm 3 mps 752 mmHg 78%
09:00 +20°C° 0 mm 3 mps 752 mmHg 74%
10:00 +22°C° 0 mm 3 mps 752 mmHg 70%
11:00 +24°C° 0 mm 3 mps 752 mmHg 66%
12:00 +23°C° 0 mm 4 mps 752 mmHg 66%
13:00 +23°C° 0 mm 4 mps 752 mmHg 65%
14:00 +23°C° 0 mm 4 mps 752 mmHg 65%
15:00 +23°C° 0 mm 4 mps 752 mmHg 67%
16:00 +24°C° 0 mm 3 mps 751 mmHg 69%
17:00 +24°C° 0 mm 3 mps 751 mmHg 71%
18:00 +21°C° 0 mm 3 mps 751 mmHg 75%
19:00 +20°C° 0 mm 2 mps 751 mmHg 78%
20:00 +18°C° 0 mm 2 mps 751 mmHg 81%
21:00 +17°C° 0 mm 2 mps 751 mmHg 83%
22:00 +17°C° 0 mm 2 mps 751 mmHg 84%
23:00 +16°C° 0 mm 2 mps 751 mmHg 86%

8 August, Saturday

Time Temperature Precipitation Wind Pressure Humidity
00:00 +16°C° 0 mm 2 mps 751 mmHg 86%
01:00 +15°C° 0 mm 2 mps 751 mmHg 86%
02:00 +15°C° 0 mm 2 mps 751 mmHg 86%
03:00 +15°C° 0 mm 2 mps 751 mmHg 87%
04:00 +15°C° 0 mm 2 mps 751 mmHg 88%
05:00 +15°C° 0 mm 2 mps 751 mmHg 88%
06:00 +16°C° 0 mm 2 mps 751 mmHg 86%
07:00 +18°C° 0 mm 2 mps 751 mmHg 83%
08:00 +19°C° 0 mm 2 mps 751 mmHg 80%
09:00 +20°C° 0.1 mm 3 mps 751 mmHg 77%
10:00 +21°C° 0.1 mm 3 mps 751 mmHg 74%
11:00 +22°C° 0.1 mm 4 mps 750 mmHg 71%
12:00 +23°C° 0.2 mm 4 mps 750 mmHg 69%
13:00 +23°C° 0.2 mm 4 mps 750 mmHg 67%
14:00 +23°C° 0.2 mm 4 mps 749 mmHg 66%
15:00 +23°C° 0 mm 4 mps 749 mmHg 67%
16:00 +24°C° 0 mm 3 mps 749 mmHg 69%
17:00 +24°C° 0 mm 3 mps 749 mmHg 71%
18:00 +21°C° 0 mm 3 mps 749 mmHg 75%
19:00 +19°C° 0 mm 3 mps 749 mmHg 80%
20:00 +17°C° 0 mm 2 mps 748 mmHg 84%
21:00 +17°C° 0 mm 2 mps 749 mmHg 86%
22:00 +16°C° 0 mm 2 mps 749 mmHg 87%
23:00 +15°C° 0 mm 2 mps 749 mmHg 89%
Show more